Weather History for KE38 - March, 2014

Change the Weather History Date:

Saturday, March 29, 2014

  Actual Average (KMRF) Record (KMRF)
Temperature  
Mean Temperature 56 °F -  
Max Temperature 74 °F 69 °F 84 °F (2015)
Min Temperature 39 °F 37 °F 21 °F (2009)
Degree Days  
Heating Degree Days 8    
Growing Degree Days 6 (Base 50)    
Moisture  
Dew Point 23 °F    
Average Humidity 27    
Maximum Humidity 38    
Minimum Humidity 14    
Precipitation  
Precipitation 0.00 in - - ()
Sea Level Pressure  
Sea Level Pressure 30.27 in    
Wind  
Wind Speed 8 mph (SSE)    
Max Wind Speed 15 mph    
Max Gust Speed 23 mph    
Visibility 10 miles    
Events      
Averages and records for this station are not official NWS values.
T = Trace of Precipitation, MM = Missing Value Source: NWS Daily Summary

Daily Weather History Graph

Daily Weather History Graph

Search for Another Location

Airport or City:

Trip Planner

Search our weather history database for the weather conditions in past years. The results will help you decide how hot, cold, wet, or windy it might be!

Date:

Astronomy

Mar. 29, 2014 Rise Set
Actual Time 7:47 AM CDT 8:11 PM CDT
Civil Twilight 7:23 AM CDT 8:35 PM CDT
Nautical Twilight 6:55 AM CDT 9:04 PM CDT
Astronomical Twilight 6:26 AM CDT 9:32 PM CDT
Moon 6:53 AM CDT (3/29) 7:21 PM CDT (3/29)
Length of Visible Light 13h 12m
Length of Day
12h 24m
Waning Crescent, 2% of the Moon is Illuminated
Mar 29
Waning Crescent
Mar 30
New
Apr 7
First Quarter
Apr 15
Full
Apr 22
Last Quarter

Hourly Weather History & Observations

Time (CDT) Temp. Windchill Dew Point Humidity Pressure Visibility Wind Dir Wind Speed Gust Speed Precip Events Conditions
12:15 AM 46.8 °F - 16.2 °F 29% 30.24 in 10.0 mi SW 8.1 mph - N/A   Clear
12:35 AM 43.9 °F 39.9 °F 15.4 °F 32% 30.24 in 10.0 mi South 6.9 mph - N/A   Clear
1:15 AM 45.1 °F 41.4 °F 16.3 °F 32% 30.25 in 10.0 mi SSW 6.9 mph - N/A   Clear
1:35 AM 43.3 °F 38.6 °F 15.8 °F 33% 30.24 in 10.0 mi SSW 8.1 mph - N/A   Clear
1:55 AM 45.7 °F 42.7 °F 16.2 °F 31% 30.25 in 10.0 mi SSW 5.8 mph - N/A   Clear
2:15 AM 43.3 °F 39.9 °F 15.8 °F 33% 30.25 in 10.0 mi SSW 5.8 mph - N/A   Clear
2:35 AM 42.4 °F 37.5 °F 15.4 °F 34% 30.25 in 10.0 mi SSW 8.1 mph - N/A   Clear
2:55 AM 42.8 °F 39.3 °F 15.8 °F 34% 30.24 in 10.0 mi SW 5.8 mph - N/A   Clear
3:15 AM 41.0 °F 35.8 °F 15.4 °F 36% 30.23 in 10.0 mi SW 8.1 mph - N/A   Clear
3:35 AM 40.1 °F 33.6 °F 15.3 °F 36% 30.23 in 10.0 mi WSW 10.4 mph - N/A   Clear
3:55 AM 41.2 °F 35.0 °F 15.6 °F 36% 30.23 in 10.0 mi SW 10.4 mph - N/A   Clear
4:15 AM 45.9 °F 41.7 °F 16.7 °F 31% 30.23 in 10.0 mi SW 8.1 mph - N/A   Clear
4:35 AM 44.4 °F 40.5 °F 16.2 °F 32% 30.22 in 10.0 mi SSW 6.9 mph - N/A   Clear
4:55 AM 44.2 °F 40.3 °F 16.3 °F 33% 30.23 in 10.0 mi South 6.9 mph - N/A   Clear
5:15 AM 45.1 °F 43.7 °F 16.3 °F 32% 30.24 in 10.0 mi SSW 3.5 mph - N/A   Clear
5:35 AM 44.2 °F 39.7 °F 16.5 °F 33% 30.25 in 10.0 mi SSW 8.1 mph - N/A   Clear
5:55 AM 43.9 °F 39.9 °F 16.5 °F 33% 30.25 in 10.0 mi SW 6.9 mph - N/A   Clear
6:15 AM 44.6 °F - 17.1 °F 33% 30.27 in 10.0 mi Calm Calm - N/A   Clear
6:35 AM 41.0 °F 38.0 °F 15.8 °F 36% 30.28 in 10.0 mi West 4.6 mph - N/A   Clear
6:55 AM 40.3 °F 36.3 °F 15.6 °F 37% 30.28 in 10.0 mi West 5.8 mph - N/A   Clear
7:15 AM 40.1 °F 35.3 °F 15.8 °F 37% 30.28 in 10.0 mi South 6.9 mph - N/A   Clear
7:35 AM 41.7 °F 38.8 °F 17.4 °F 38% 30.30 in 7.0 mi SSE 4.6 mph - N/A   Clear
7:55 AM 40.3 °F 37.1 °F 16.3 °F 38% 30.32 in 10.0 mi WNW 4.6 mph - N/A   Clear
8:15 AM 39.9 °F - 16.3 °F 38% 30.33 in 10.0 mi Calm Calm - N/A   Clear
8:35 AM 42.6 °F 39.9 °F 16.9 °F 35% 30.34 in 10.0 mi WSW 4.6 mph - N/A   Clear
8:55 AM 51.4 °F - 18.3 °F 27% 30.34 in 10.0 mi NNW 3.5 mph - N/A   Clear
9:15 AM 54.7 °F - 18.7 °F 24% 30.35 in 10.0 mi Calm Calm - N/A   Clear
9:35 AM 56.1 °F - 19.6 °F 24% 30.35 in 10.0 mi NNE 4.6 mph - N/A   Clear
9:55 AM 57.0 °F - 19.2 °F 23% 30.36 in 10.0 mi NNE 6.9 mph - N/A   Clear
10:15 AM 58.1 °F - 20.5 °F 23% 30.36 in 10.0 mi NNE 6.9 mph - N/A   Clear
10:35 AM 59.7 °F - 23.9 °F 25% 30.36 in 10.0 mi NNE 9.2 mph - N/A   Clear
10:55 AM 61.2 °F - 26.4 °F 27% 30.37 in 10.0 mi East 12.7 mph 18.4 mph N/A   Clear
11:15 AM 60.8 °F - 25.9 °F 26% 30.38 in 10.0 mi ENE 11.5 mph - N/A   Clear
11:35 AM 61.0 °F - 26.6 °F 27% 30.38 in 10.0 mi ENE 12.7 mph 17.3 mph N/A   Clear
11:55 AM 62.4 °F - 28.4 °F 28% 30.37 in 10.0 mi ENE 13.8 mph - N/A   Clear
12:15 PM 63.1 °F - 28.4 °F 27% 30.37 in 10.0 mi NE 9.2 mph 17.3 mph N/A   Clear
12:35 PM 65.3 °F - 29.1 °F 26% 30.36 in 10.0 mi ENE 10.4 mph - N/A   Clear
12:55 PM 66.2 °F - 30.4 °F 26% 30.35 in 10.0 mi NE 9.2 mph - N/A   Clear
1:15 PM 67.8 °F - 31.6 °F 26% 30.34 in 10.0 mi NE 11.5 mph 16.1 mph N/A   Clear
1:35 PM 69.6 °F - 29.5 °F 22% 30.32 in 10.0 mi NE 6.9 mph 16.1 mph N/A   Clear
1:55 PM 70.5 °F - 24.1 °F 17% 30.32 in 10.0 mi ESE 10.4 mph 18.4 mph N/A   Clear
2:15 PM 71.6 °F - 24.1 °F 17% 30.30 in 10.0 mi SE 11.5 mph 16.1 mph N/A   Clear
2:35 PM 71.2 °F - 25.3 °F 18% 30.29 in 10.0 mi ESE 13.8 mph 23.0 mph N/A   Clear
2:55 PM 70.3 °F - 23.4 °F 17% 30.28 in 10.0 mi ESE 11.5 mph 17.3 mph N/A   Clear
3:15 PM 72.1 °F - 24.3 °F 17% 30.27 in 10.0 mi East 10.4 mph - N/A   Clear
3:35 PM 72.5 °F - 23.2 °F 16% 30.26 in 10.0 mi ESE 4.6 mph - N/A   Clear
3:55 PM 74.1 °F - 23.9 °F 15% 30.25 in 10.0 mi ESE 9.2 mph 16.1 mph N/A   Clear
4:15 PM 73.8 °F - 23.0 °F 15% 30.24 in 10.0 mi ESE 6.9 mph 17.3 mph N/A   Clear
4:35 PM 72.1 °F - 22.1 °F 15% 30.24 in 10.0 mi ESE 8.1 mph - N/A   Clear
4:55 PM 73.0 °F - 21.6 °F 14% 30.23 in 10.0 mi SSE 9.2 mph 20.7 mph N/A   Clear
5:15 PM 72.7 °F - 21.0 °F 14% 30.22 in 10.0 mi SE 8.1 mph - N/A   Clear
5:35 PM 73.0 °F - 21.4 °F 14% 30.22 in 10.0 mi SE 10.4 mph 19.6 mph N/A   Clear
5:55 PM 73.2 °F - 22.6 °F 15% 30.22 in 10.0 mi SE 12.7 mph 16.1 mph N/A   Clear
6:15 PM 72.3 °F - 23.0 °F 16% 30.21 in 10.0 mi SE 9.2 mph 17.3 mph N/A   Clear
6:35 PM 72.0 °F - 25.3 °F 18% 30.21 in 10.0 mi SE 11.5 mph - N/A   Clear
6:55 PM 70.0 °F - 26.8 °F 20% 30.21 in 10.0 mi SSE 15.0 mph - N/A   Clear
7:15 PM 69.1 °F - 26.8 °F 21% 30.22 in 10.0 mi SSE 11.5 mph 19.6 mph N/A   Clear
7:35 PM 68.2 °F - 26.2 °F 21% 30.22 in 10.0 mi SE 11.5 mph - N/A   Clear
7:55 PM 67.5 °F - 30.7 °F 25% 30.22 in 10.0 mi SSE 13.8 mph - N/A   Clear
8:15 PM 65.7 °F - 32.0 °F 29% 30.22 in 10.0 mi SE 9.2 mph - N/A   Clear
8:35 PM 64.2 °F - 32.0 °F 30% 30.23 in 10.0 mi ESE 5.8 mph - N/A   Clear
8:55 PM 63.5 °F - 32.0 °F 31% 30.23 in 10.0 mi SE 5.8 mph - N/A   Clear
9:15 PM 62.6 °F - 32.0 °F 32% 30.23 in 10.0 mi SE 5.8 mph - N/A   Clear
9:35 PM 62.6 °F - 32.4 °F 32% 30.23 in 10.0 mi SSE 5.8 mph - N/A   Clear
9:55 PM 62.6 °F - 32.2 °F 32% 30.24 in 10.0 mi SSE 6.9 mph - N/A   Clear
10:15 PM 61.3 °F - 32.2 °F 33% 30.24 in 10.0 mi SSE 6.9 mph - N/A   Clear
10:35 PM 61.3 °F - 32.2 °F 33% 30.24 in 10.0 mi SSE 6.9 mph - N/A   Clear
10:55 PM 60.8 °F - 32.2 °F 34% 30.24 in 10.0 mi SSE 5.8 mph - N/A   Clear
11:15 PM 60.4 °F - 32.2 °F 35% 30.24 in 10.0 mi South 3.5 mph - N/A   Clear
11:35 PM 60.3 °F - 32.2 °F 35% 30.24 in 10.0 mi South 5.8 mph - N/A   Clear
11:55 PM 59.5 °F - 32.4 °F 36% 30.24 in 10.0 mi South 3.5 mph - N/A   Clear